Station Historical Data
Daily Summary for April 24, 2017 Units:  Metric    English   Both
« Previous Day
Next Day »
Daily Weekly Monthly Yearly Custom
  High: Low: Average:
Temperature: 17.9 °C 2.7 °C 10.3 °C
Dew Point: 9.2 °C -0.8 °C 3.7 °C
Humidity: 79% 52% 65%
Wind Speed: 20.9km/h 0km/h 7.4km/h
Wind Gust: 33.8km/h - -
Wind- - ENE
Pressure: 1021.2 hPa 1016.5 hPa -
Precipitation: 0 mm    
Historical Graphs
 
 
Tabular Data for April 24, 2017
Time Temperature Dew Point Pressure Wind Wind Speed Wind Gust Humidity Rainfall Rate (Hourly)
00:00 5.8 °C 0.5 °C 1018.5 hPa Calm     69% 0 mm
00:05 5.7 °C 0.4 °C 1018.8 hPa Calm     69% 0 mm
00:10 5.6 °C 0.6 °C 1018.8 hPa Calm     70% 0 mm
00:15 5.5 °C 0.7 °C 1018.8 hPa Calm     71% 0 mm
00:20 5.5 °C 0.7 °C 1018.8 hPa Calm     71% 0 mm
00:25 5.4 °C 0.6 °C 1018.8 hPa Calm     71% 0 mm
00:30 5.3 °C 0.4 °C 1018.8 hPa Calm     71% 0 mm
00:35 5.3 °C 0.6 °C 1018.8 hPa Calm     72% 0 mm
00:40 5.3 °C 0.8 °C 1018.8 hPa Calm     73% 0 mm
00:45 5.2 °C 0.8 °C 1018.8 hPa Calm     73% 0 mm
00:50 5.2 °C 0.7 °C 1018.8 hPa Calm     73% 0 mm
00:55 5.1 °C 0.7 °C 1018.8 hPa Calm     73% 0 mm
01:00 5.1 °C 0.8 °C 1018.8 hPa Calm     74% 0 mm
01:05 4.9 °C 0.7 °C 1019.2 hPa Calm     74% 0 mm
01:10 4.9 °C 0.7 °C 1018.8 hPa Calm     74% 0 mm
01:15 4.8 °C 0.6 °C 1018.8 hPa Calm     74% 0 mm
01:20 4.7 °C 0.7 °C 1018.8 hPa Calm     75% 0 mm
01:25 4.7 °C 0.6 °C 1018.8 hPa Calm     75% 0 mm
01:30 4.6 °C 0.6 °C 1018.8 hPa Calm     75% 0 mm
01:35 4.5 °C 0.6 °C 1018.8 hPa Calm     76% 0 mm
01:40 4.4 °C 0.8 °C 1018.8 hPa SSW 3.2 km/h 4.8 km/h 77% 0 mm
01:45 4.4 °C 0.7 °C 1018.8 hPa Calm   4.8 km/h 77% 0 mm
01:50 4.4 °C 0.7 °C 1018.8 hPa Calm     77% 0 mm
01:55 4.4 °C 0.9 °C 1018.8 hPa Calm     78% 0 mm
02:00 4.4 °C 0.9 °C 1018.8 hPa Calm     78% 0 mm
02:05 4.4 °C 0.9 °C 1018.8 hPa Calm     78% 0 mm
02:10 4.4 °C 0.8 °C 1018.8 hPa Calm   1.6 km/h 77% 0 mm
02:15 4.4 °C 0.4 °C 1018.8 hPa Calm   1.6 km/h 75% 0 mm
02:20 4.3 °C 0.2 °C 1018.8 hPa Calm   1.6 km/h 75% 0 mm
02:25 4.1 °C 0.4 °C 1018.8 hPa Calm     77% 0 mm
02:30 3.8 °C 0.3 °C 1018.8 hPa SSW 1.6 km/h 3.2 km/h 78% 0 mm
02:35 3.7 °C 0.2 °C 1018.8 hPa SSW 3.2 km/h 3.2 km/h 78% 0 mm
02:40 3.7 °C 0.2 °C 1018.8 hPa SSW 1.6 km/h 3.2 km/h 78% 0 mm
02:45 3.9 °C 0.3 °C 1018.8 hPa Calm     77% 0 mm
02:50 3.8 °C 0 °C 1018.8 hPa Calm     76% 0 mm
02:55 3.6 °C -0.1 °C 1018.8 hPa Calm     77% 0 mm
03:00 3.6 °C 0.1 °C 1018.5 hPa Calm     78% 0 mm
03:05 3.6 °C 0.1 °C 1018.8 hPa Calm     78% 0 mm
03:10 3.3 °C -0.2 °C 1018.8 hPa West 1.6 km/h 3.2 km/h 78% 0 mm
03:15 3.3 °C -0.2 °C 1018.8 hPa West 1.6 km/h 3.2 km/h 78% 0 mm
03:20 3.3 °C -0.2 °C 1018.8 hPa Calm     78% 0 mm
03:25 3.3 °C -0.2 °C 1018.8 hPa Calm     78% 0 mm
03:30 3.2 °C -0.2 °C 1018.8 hPa Calm     78% 0 mm
03:35 3.3 °C -0.2 °C 1018.8 hPa Calm     78% 0 mm
03:40 3.1 °C -0.3 °C 1018.8 hPa Calm     78% 0 mm
03:45 3 °C -0.3 °C 1018.8 hPa Calm     79% 0 mm
03:50 3.3 °C 0.1 °C 1018.8 hPa Calm     79% 0 mm
03:55 3.4 °C -0.1 °C 1018.8 hPa Calm     78% 0 mm
04:00 3.6 °C -0.3 °C 1018.8 hPa Calm     76% 0 mm
04:05 3.6 °C -0.1 °C 1018.8 hPa Calm     77% 0 mm
04:10 3.4 °C -0.3 °C 1018.8 hPa Calm     77% 0 mm
04:15 3.3 °C -0.4 °C 1019.2 hPa Calm     77% 0 mm
04:20 3.2 °C -0.4 °C 1019.2 hPa Calm     77% 0 mm
04:25 3.2 °C -0.3 °C 1019.2 hPa Calm     78% 0 mm
04:30 3.4 °C -0.4 °C 1019.2 hPa Calm     76% 0 mm
04:35 3.2 °C -0.4 °C 1019.2 hPa Calm     77% 0 mm
04:40 3.3 °C -0.6 °C 1019.2 hPa Calm     76% 0 mm
04:45 3.2 °C -0.7 °C 1019.2 hPa Calm     76% 0 mm
04:50 3.3 °C -0.5 °C 1019.2 hPa Calm     76% 0 mm
04:55 3.3 °C -0.7 °C 1019.2 hPa Calm     75% 0 mm
05:00 3.2 °C -0.6 °C 1019.2 hPa Calm     76% 0 mm
05:05 3.3 °C -0.3 °C 1019.2 hPa Calm     77% 0 mm
05:10 3.3 °C -0.6 °C 1019.5 hPa Calm     76% 0 mm
05:15 3.2 °C -0.6 °C 1019.5 hPa Calm     76% 0 mm
05:20 3.1 °C -0.6 °C 1019.5 hPa Calm     77% 0 mm
05:25 3.1 °C -0.6 °C 1019.5 hPa Calm     77% 0 mm
05:30 3.2 °C -0.5 °C 1019.5 hPa Calm     77% 0 mm
05:35 3.2 °C -0.6 °C 1019.5 hPa Calm     76% 0 mm
05:40 3 °C -0.7 °C 1019.5 hPa Calm     77% 0 mm
05:45 3 °C -0.7 °C 1019.5 hPa Calm     77% 0 mm
05:50 2.8 °C -0.8 °C 1019.9 hPa Calm     77% 0 mm
05:55 2.8 °C -0.8 °C 1019.9 hPa Calm     77% 0 mm
06:00 2.7 °C -0.8 °C 1019.9 hPa Calm     78% 0 mm
06:05 2.7 °C -0.8 °C 1019.9 hPa Calm     78% 0 mm
06:10 2.8 °C -0.7 °C 1019.9 hPa Calm     78% 0 mm
06:15 3.1 °C -0.3 °C 1019.9 hPa Calm     78% 0 mm
06:20 3.3 °C -0.3 °C 1019.9 hPa Calm     77% 0 mm
06:25 3.7 °C -0.1 °C 1019.9 hPa ENE 1.6 km/h 6.4 km/h 76% 0 mm
06:30 3.9 °C -0.2 °C 1020.2 hPa NE 3.2 km/h 8 km/h 75% 0 mm
06:35 4.1 °C -0.3 °C 1020.2 hPa ENE 3.2 km/h 8 km/h 73% 0 mm
06:40 4.2 °C 0 °C 1020.2 hPa ENE 3.2 km/h 12.9 km/h 74% 0 mm
06:45 4.4 °C 0.2 °C 1020.5 hPa ENE 4.8 km/h 12.9 km/h 74% 0 mm
06:50 4.7 °C 0.5 °C 1020.5 hPa ENE 4.8 km/h 12.9 km/h 74% 0 mm
06:55 4.9 °C 0.7 °C 1020.5 hPa ENE 4.8 km/h 9.7 km/h 74% 0 mm
07:00 5.1 °C 0.8 °C 1020.5 hPa ENE 4.8 km/h 11.3 km/h 74% 0 mm
07:05 5.4 °C 1.3 °C 1020.5 hPa NE 4.8 km/h 12.9 km/h 75% 0 mm
07:10 5.6 °C 1.7 °C 1020.5 hPa NE 6.4 km/h 16.1 km/h 76% 0 mm
07:15 5.8 °C 1.9 °C 1020.9 hPa NE 4.8 km/h 19.3 km/h 76% 0 mm
07:20 5.9 °C 2.2 °C 1020.9 hPa East 14.5 km/h 16.1 km/h 77% 0 mm
07:25 6 °C 2.3 °C 1020.9 hPa ESE 6.4 km/h 24.1 km/h 77% 0 mm
07:30 6.1 °C 2.5 °C 1021.2 hPa NE 11.3 km/h 24.1 km/h 78% 0 mm
07:40 6.3 °C 2.8 °C 1020.9 hPa NE 9.7 km/h 19.3 km/h 78% 0 mm
07:45 6.4 °C 2.8 °C 1020.9 hPa NE 9.7 km/h 20.9 km/h 78% 0 mm
07:50 6.6 °C 3 °C 1020.9 hPa East 8 km/h 16.1 km/h 78% 0 mm
07:55 6.6 °C 2.9 °C 1020.9 hPa NE 4.8 km/h 24.1 km/h 77% 0 mm
08:00 6.7 °C 3.1 °C 1020.9 hPa NE 11.3 km/h 24.1 km/h 78% 0 mm
08:05 6.9 °C 3.1 °C 1020.9 hPa NE 12.9 km/h 25.7 km/h 77% 0 mm
08:10 7.2 °C 3.3 °C 1020.9 hPa East 4.8 km/h 17.7 km/h 76% 0 mm
08:15 7 °C 3.2 °C 1021.2 hPa NE 14.5 km/h 22.5 km/h 77% 0 mm
08:20 7 °C 3.2 °C 1021.2 hPa NE 9.7 km/h 19.3 km/h 77% 0 mm
08:30 7.6 °C 3.6 °C 1021.2 hPa NE 11.3 km/h 24.1 km/h 76% 0 mm
08:35 7.6 °C 3.4 °C 1021.2 hPa ENE 11.3 km/h 24.1 km/h 75% 0 mm
08:40 7.8 °C 3.6 °C 1020.9 hPa ENE 11.3 km/h 25.7 km/h 75% 0 mm
08:45 8.2 °C 4 °C 1021.2 hPa East 8 km/h 20.9 km/h 75% 0 mm
08:50 8.3 °C 3.8 °C 1021.2 hPa NE 9.7 km/h 22.5 km/h 73% 0 mm
08:55 8.4 °C 3.9 °C 1021.2 hPa East 4.8 km/h 27.4 km/h 73% 0 mm
09:00 8.5 °C 3.9 °C 1021.2 hPa ENE 11.3 km/h 27.4 km/h 73% 0 mm
09:05 8.8 °C 4 °C 1021.2 hPa ENE 11.3 km/h 20.9 km/h 72% 0 mm
09:10 8.8 °C 4 °C 1021.2 hPa ENE 11.3 km/h 20.9 km/h 72% 0 mm
09:15 9.2 °C 4.4 °C 1021.2 hPa NE 9.7 km/h 19.3 km/h 72% 0 mm
09:20 9.2 °C 4.2 °C 1021.2 hPa NE 17.7 km/h 20.9 km/h 71% 0 mm
09:25 9.1 °C 4.1 °C 1021.2 hPa ENE 11.3 km/h 20.9 km/h 71% 0 mm
09:30 9.4 °C 4.7 °C 1021.2 hPa ENE 11.3 km/h 22.5 km/h 72% 0 mm
09:35 9.6 °C 4.2 °C 1021.2 hPa NE 9.7 km/h 20.9 km/h 69% 0 mm
09:40 9.7 °C 4.4 °C 1021.2 hPa ENE 11.3 km/h 20.9 km/h 70% 0 mm
09:45 10.1 °C 4.9 °C 1021.2 hPa ENE 14.5 km/h 19.3 km/h 70% 0 mm
09:50 10.1 °C 4.7 °C 1021.2 hPa East 14.5 km/h 24.1 km/h 69% 0 mm
09:55 10.3 °C 4.9 °C 1021.2 hPa ENE 11.3 km/h 24.1 km/h 69% 0 mm
10:00 10.6 °C 4.9 °C 1021.2 hPa ENE 11.3 km/h 20.9 km/h 68% 0 mm
10:05 10.7 °C 4.8 °C 1020.9 hPa ENE 11.3 km/h 20.9 km/h 67% 0 mm
10:10 10.8 °C 4.9 °C 1021.2 hPa ENE 11.3 km/h 20.9 km/h 67% 0 mm
10:15 11 °C 4.9 °C 1021.2 hPa ENE 11.3 km/h 20.9 km/h 66% 0 mm
10:20 11.2 °C 5.7 °C 1020.9 hPa ENE 9.7 km/h 20.9 km/h 69% 0 mm
10:25 11.4 °C 5.5 °C 1020.9 hPa ENE 9.7 km/h 20.9 km/h 67% 0 mm
10:30 11.8 °C 5.4 °C 1020.9 hPa NE 14.5 km/h 20.9 km/h 65% 0 mm
10:35 12 °C 5.6 °C 1020.9 hPa East 3.2 km/h 19.3 km/h 65% 0 mm
10:40 12.4 °C 5.8 °C 1020.9 hPa NE 8 km/h 19.3 km/h 64% 0 mm
10:45 12.3 °C 5.9 °C 1020.5 hPa NE 9.7 km/h 17.7 km/h 65% 0 mm
10:50 12.4 °C 5.8 °C 1020.9 hPa NE 9.7 km/h 17.7 km/h 64% 0 mm
10:55 12.6 °C 6.2 °C 1020.9 hPa NE 9.7 km/h 20.9 km/h 65% 0 mm
11:00 13.2 °C 6.1 °C 1020.9 hPa ENE 8 km/h 20.9 km/h 62% 0 mm
11:05 13.4 °C 6 °C 1020.5 hPa ENE 8 km/h 17.7 km/h 61% 0 mm
11:10 13.2 °C 5.8 °C 1020.5 hPa ENE 9.7 km/h 17.7 km/h 61% 0 mm
11:15 13.7 °C 6.7 °C 1020.5 hPa NE 9.7 km/h 17.7 km/h 63% 0 mm
11:20 14.1 °C 6.7 °C 1020.5 hPa NE 8 km/h 16.1 km/h 61% 0 mm
11:25 14.3 °C 5.9 °C 1020.5 hPa NE 8 km/h 20.9 km/h 57% 0 mm
11:30 14.1 °C 5.7 °C 1020.5 hPa NE 4.8 km/h 19.3 km/h 57% 0 mm
11:35 14.6 °C 6.6 °C 1020.2 hPa East 8 km/h 17.7 km/h 59% 0 mm
11:40 14.5 °C 6.6 °C 1020.2 hPa ENE 8 km/h 17.7 km/h 59% 0 mm
11:45 14.9 °C 6.2 °C 1020.2 hPa NE 9.7 km/h 16.1 km/h 56% 0 mm
11:50 15.1 °C 6.3 °C 1020.2 hPa ENE 9.7 km/h 19.3 km/h 56% 0 mm
11:55 15.4 °C 6.7 °C 1020.2 hPa ENE 9.7 km/h 19.3 km/h 56% 0 mm
12:00 15.4 °C 6.7 °C 1020.2 hPa ENE 11.3 km/h 22.5 km/h 56% 0 mm
12:05 15.3 °C 6.6 °C 1020.2 hPa NE 12.9 km/h 22.5 km/h 56% 0 mm
12:10 15.7 °C 6.1 °C 1020.2 hPa NNE 12.9 km/h 17.7 km/h 53% 0 mm
12:15 15.7 °C 6.2 °C 1020.2 hPa NNE 8 km/h 20.9 km/h 53% 0 mm
12:20 16 °C 6.4 °C 1020.2 hPa ENE 9.7 km/h 20.9 km/h 53% 0 mm
12:25 16 °C 6.4 °C 1019.9 hPa NE 9.7 km/h 19.3 km/h 53% 0 mm
12:30 16.1 °C 6.4 °C 1019.9 hPa NE 11.3 km/h 22.5 km/h 53% 0 mm
12:35 16 °C 6.4 °C 1019.9 hPa NE 12.9 km/h 22.5 km/h 53% 0 mm
12:40 16.3 °C 7.2 °C 1019.9 hPa NNE 11.3 km/h 22.5 km/h 55% 0 mm
12:45 16.6 °C 7.2 °C 1019.9 hPa NE 9.7 km/h 22.5 km/h 54% 0 mm
12:50 16.6 °C 7 °C 1019.5 hPa NE 11.3 km/h 22.5 km/h 53% 0 mm
12:55 16.7 °C 8.1 °C 1019.5 hPa North 9.7 km/h 19.3 km/h 57% 0 mm
13:00 16.9 °C 7.3 °C 1019.5 hPa ENE 8 km/h 22.5 km/h 53% 0 mm
13:05 17 °C 8.2 °C 1019.5 hPa NE 11.3 km/h 19.3 km/h 56% 0 mm
13:10 17 °C 8.2 °C 1019.5 hPa ENE 14.5 km/h 17.7 km/h 56% 0 mm
13:15 17.2 °C 8.6 °C 1019.5 hPa NE 9.7 km/h 20.9 km/h 57% 0 mm
13:20 17.2 °C 8.3 °C 1019.2 hPa NE 9.7 km/h 20.9 km/h 56% 0 mm
13:25 17.3 °C 9.2 °C 1019.2 hPa NE 11.3 km/h 20.9 km/h 59% 0 mm
13:30 17.3 °C 8.4 °C 1019.2 hPa NE 11.3 km/h 25.7 km/h 56% 0 mm
13:35 17.2 °C 8.4 °C 1019.2 hPa NE 9.7 km/h 25.7 km/h 56% 0 mm
13:40 17.3 °C 8.7 °C 1019.2 hPa NE 14.5 km/h 19.3 km/h 57% 0 mm
13:45 17.3 °C 8.2 °C 1019.2 hPa NE 9.7 km/h 25.7 km/h 55% 0 mm
13:50 17.2 °C 8.3 °C 1019.2 hPa NE 17.7 km/h 29 km/h 56% 0 mm
13:55 17.1 °C 7.7 °C 1019.2 hPa NE 12.9 km/h 24.1 km/h 54% 0 mm
14:00 17.3 °C 8.4 °C 1018.8 hPa NE 12.9 km/h 17.7 km/h 56% 0 mm
14:05 17.4 °C 8.1 °C 1018.8 hPa NNE 8 km/h 25.7 km/h 54% 0 mm
14:10 17.6 °C 8.9 °C 1018.8 hPa East 9.7 km/h 17.7 km/h 57% 0 mm
14:15 17.6 °C 8.4 °C 1018.8 hPa NE 11.3 km/h 22.5 km/h 55% 0 mm
14:20 17.6 °C 8.2 °C 1018.8 hPa NE 11.3 km/h 24.1 km/h 54% 0 mm
14:25 17.7 °C 8.5 °C 1018.8 hPa NE 11.3 km/h 24.1 km/h 55% 0 mm
14:30 17.8 °C 8.3 °C 1018.8 hPa NE 11.3 km/h 22.5 km/h 54% 0 mm
14:35 17.6 °C 7.9 °C 1018.5 hPa NE 11.3 km/h 24.1 km/h 53% 0 mm
14:40 17.5 °C 8.1 °C 1018.5 hPa ENE 11.3 km/h 24.1 km/h 54% 0 mm
14:45 17.7 °C 8.3 °C 1018.5 hPa NE 12.9 km/h 25.7 km/h 54% 0 mm
14:50 17.7 °C 8.2 °C 1018.5 hPa NE 11.3 km/h 25.7 km/h 54% 0 mm
14:55 17.9 °C 7.9 °C 1018.5 hPa NE 14.5 km/h 24.1 km/h 52% 0 mm
15:00 17.8 °C 7.8 °C 1018.5 hPa NE 12.9 km/h 24.1 km/h 52% 0 mm
15:05 17.8 °C 8.6 °C 1018.5 hPa NE 11.3 km/h 22.5 km/h 55% 0 mm
15:10 17.4 °C 8 °C 1018.5 hPa NE 11.3 km/h 27.4 km/h 54% 0 mm
15:15 17.3 °C 8.2 °C 1018.2 hPa NE 14.5 km/h 27.4 km/h 55% 0 mm
15:20 17.6 °C 7.9 °C 1018.2 hPa NE 12.9 km/h 30.6 km/h 53% 0 mm
15:25 17.3 °C 7.9 °C 1017.8 hPa NE 12.9 km/h 30.6 km/h 54% 0 mm
15:30 17.3 °C 8.7 °C 1017.8 hPa NE 14.5 km/h 29 km/h 57% 0 mm
15:35 17.5 °C 8.1 °C 1017.8 hPa NE 12.9 km/h 29 km/h 54% 0 mm
15:40 17.4 °C 8.3 °C 1017.8 hPa NE 14.5 km/h 25.7 km/h 55% 0 mm
15:45 17.2 °C 7.8 °C 1017.8 hPa NNE 6.4 km/h 25.7 km/h 54% 0 mm
15:50 17.3 °C 7.6 °C 1017.5 hPa NE 12.9 km/h 25.7 km/h 53% 0 mm
15:55 17 °C 7.9 °C 1017.8 hPa NE 9.7 km/h 20.9 km/h 55% 0 mm
16:00 17.3 °C 7.6 °C 1017.5 hPa NE 8 km/h 25.7 km/h 53% 0 mm
16:05 16.9 °C 7.5 °C 1017.5 hPa NNE 8 km/h 25.7 km/h 54% 0 mm
16:10 16.8 °C 7.7 °C 1017.5 hPa NNE 12.9 km/h 24.1 km/h 55% 0 mm
16:15 16.7 °C 7.1 °C 1017.8 hPa NE 12.9 km/h 24.1 km/h 53% 0 mm
16:20 16.8 °C 7.7 °C 1017.5 hPa NE 12.9 km/h 24.1 km/h 55% 0 mm
16:25 16.7 °C 6.8 °C 1017.5 hPa NE 11.3 km/h 29 km/h 52% 0 mm
16:30 16.7 °C 7.3 °C 1017.5 hPa NE 12.9 km/h 29 km/h 54% 0 mm
16:35 16.4 °C 6.8 °C 1017.5 hPa NE 12.9 km/h 22.5 km/h 53% 0 mm
16:40 16.4 °C 7.1 °C 1017.5 hPa NNE 8 km/h 24.1 km/h 54% 0 mm
16:45 16.7 °C 7.3 °C 1017.2 hPa NE 12.9 km/h 24.1 km/h 54% 0 mm
16:50 16.9 °C 7.5 °C 1017.2 hPa NE 11.3 km/h 22.5 km/h 54% 0 mm
16:55 16.8 °C 7.4 °C 1017.2 hPa ENE 11.3 km/h 17.7 km/h 54% 0 mm
17:00 16.8 °C 7.2 °C 1017.2 hPa ENE 19.3 km/h 27.4 km/h 53% 0 mm
17:05 16.4 °C 6.6 °C 1016.8 hPa ENE 20.9 km/h 25.7 km/h 52% 0 mm
17:10 16.3 °C 7 °C 1016.8 hPa ENE 14.5 km/h 24.1 km/h 54% 0 mm
17:15 16.6 °C 7.2 °C 1016.8 hPa NE 12.9 km/h 24.1 km/h 54% 0 mm
17:20 16.3 °C 6.7 °C 1016.8 hPa ENE 16.1 km/h 27.4 km/h 53% 0 mm
17:25 16.4 °C 7.1 °C 1016.8 hPa NNE 8 km/h 19.3 km/h 54% 0 mm
17:30 16.2 °C 6.6 °C 1016.8 hPa NNE 14.5 km/h 25.7 km/h 53% 0 mm
17:35 16.1 °C 6.4 °C 1016.8 hPa NNE 6.4 km/h 19.3 km/h 53% 0 mm
17:40 16 °C 6.7 °C 1016.8 hPa NE 11.3 km/h 19.3 km/h 54% 0 mm
17:45 16.1 °C 6.2 °C 1016.8 hPa NE 9.7 km/h 25.7 km/h 52% 0 mm
17:50 15.9 °C 6.1 °C 1016.8 hPa NE 12.9 km/h 27.4 km/h 52% 0 mm
17:55 15.7 °C 6.1 °C 1016.8 hPa NE 12.9 km/h 27.4 km/h 53% 0 mm
18:00 15.4 °C 5.6 °C 1016.5 hPa NE 12.9 km/h 29 km/h 52% 0 mm
18:05 15.3 °C 5.8 °C 1016.5 hPa ENE 17.7 km/h 25.7 km/h 53% 0 mm
18:10 15.2 °C 5.9 °C 1016.8 hPa NE 12.9 km/h 25.7 km/h 54% 0 mm
18:15 15.1 °C 5.6 °C 1016.5 hPa NE 11.3 km/h 27.4 km/h 53% 0 mm
18:20 14.9 °C 6 °C 1016.5 hPa NE 9.7 km/h 33.8 km/h 55% 0 mm
18:25 15.1 °C 5.6 °C 1016.5 hPa NE 9.7 km/h 20.9 km/h 53% 0 mm
18:30 15.1 °C 5.9 °C 1016.5 hPa NE 4.8 km/h 20.9 km/h 54% 0 mm
18:35 14.8 °C 5.3 °C 1016.5 hPa NNE 6.4 km/h 25.7 km/h 53% 0 mm
18:40 14.7 °C 5.4 °C 1016.5 hPa ENE 20.9 km/h 24.1 km/h 54% 0 mm
18:45 14.5 °C 5 °C 1016.5 hPa NE 11.3 km/h 27.4 km/h 53% 0 mm
18:50 14.2 °C 5 °C 1016.5 hPa NE 14.5 km/h 29 km/h 54% 0 mm
18:55 14 °C 4.8 °C 1016.5 hPa NE 14.5 km/h 29 km/h 54% 0 mm
19:00 13.8 °C 4.9 °C 1016.5 hPa NE 4.8 km/h 22.5 km/h 55% 0 mm
19:05 13.7 °C 4.5 °C 1016.5 hPa NE 17.7 km/h 27.4 km/h 54% 0 mm
19:10 13.4 °C 4.6 °C 1016.5 hPa NE 11.3 km/h 25.7 km/h 55% 0 mm
19:15 13.3 °C 4.5 °C 1016.5 hPa NE 12.9 km/h 25.7 km/h 55% 0 mm
19:20 13.2 °C 4.3 °C 1016.5 hPa NE 12.9 km/h 24.1 km/h 55% 0 mm
19:25 13 °C 4.4 °C 1016.5 hPa NNE 6.4 km/h 24.1 km/h 56% 0 mm
19:30 12.8 °C 4.2 °C 1016.5 hPa NE 9.7 km/h 24.1 km/h 56% 0 mm
19:35 12.6 °C 4.1 °C 1016.5 hPa NE 8 km/h 24.1 km/h 56% 0 mm
19:40 12.6 °C 4.3 °C 1016.5 hPa ENE 11.3 km/h 20.9 km/h 57% 0 mm
19:45 12.4 °C 3.9 °C 1016.5 hPa NE 11.3 km/h 20.9 km/h 56% 0 mm
19:50 12.3 °C 3.7 °C 1016.5 hPa NE 12.9 km/h 24.1 km/h 56% 0 mm
19:55 12.2 °C 3.4 °C 1016.8 hPa ESE 11.3 km/h 24.1 km/h 55% 0 mm
20:00 12.1 °C 3.6 °C 1016.8 hPa NE 11.3 km/h 22.5 km/h 56% 0 mm
20:05 11.9 °C 3.4 °C 1016.8 hPa ENE 11.3 km/h 17.7 km/h 56% 0 mm
20:10 11.8 °C 3.3 °C 1016.8 hPa ENE 9.7 km/h 22.5 km/h 56% 0 mm
20:15 11.7 °C 3.2 °C 1016.8 hPa ENE 11.3 km/h 22.5 km/h 56% 0 mm
20:20 11.5 °C 2.8 °C 1016.8 hPa ENE 12.9 km/h 27.4 km/h 55% 0 mm
20:25 11.4 °C 2.9 °C 1016.8 hPa ENE 12.9 km/h 27.4 km/h 56% 0 mm
20:30 11.2 °C 2.5 °C 1016.8 hPa ENE 12.9 km/h 27.4 km/h 55% 0 mm
20:35 11.2 °C 2.7 °C 1016.8 hPa ENE 12.9 km/h 27.4 km/h 56% 0 mm
20:40 11 °C 2.8 °C 1017.2 hPa ENE 9.7 km/h 22.5 km/h 57% 0 mm
20:45 10.9 °C 2.7 °C 1017.2 hPa East 11.3 km/h 20.9 km/h 57% 0 mm
20:50 10.8 °C 2.7 °C 1017.2 hPa ENE 4.8 km/h 20.9 km/h 57% 0 mm
20:55 10.7 °C 2.5 °C 1017.2 hPa ENE 12.9 km/h 19.3 km/h 57% 0 mm
21:00 10.7 °C 2.7 °C 1017.2 hPa ENE 8 km/h 19.3 km/h 58% 0 mm
21:05 10.6 °C 2.7 °C 1017.2 hPa ENE 3.2 km/h 17.7 km/h 58% 0 mm
21:10 10.6 °C 2.7 °C 1017.2 hPa ENE 9.7 km/h 24.1 km/h 58% 0 mm
21:15 10.6 °C 2.9 °C 1017.2 hPa ENE 9.7 km/h 24.1 km/h 59% 0 mm
21:20 10.6 °C 2.9 °C 1017.2 hPa ENE 9.7 km/h 20.9 km/h 59% 0 mm
21:25 10.6 °C 2.9 °C 1017.5 hPa ENE 11.3 km/h 22.5 km/h 59% 0 mm
21:30 10.6 °C 2.9 °C 1017.5 hPa NE 6.4 km/h 22.5 km/h 59% 0 mm
21:35 10.6 °C 2.9 °C 1017.5 hPa ENE 8 km/h 24.1 km/h 59% 0 mm
21:40 10.6 °C 2.9 °C 1017.5 hPa ENE 9.7 km/h 24.1 km/h 59% 0 mm
21:45 10.5 °C 3.1 °C 1017.2 hPa ENE 9.7 km/h 20.9 km/h 60% 0 mm
21:50 10.5 °C 3.1 °C 1017.2 hPa ENE 9.7 km/h 20.9 km/h 60% 0 mm
21:55 10.4 °C 3 °C 1017.2 hPa ENE 9.7 km/h 20.9 km/h 60% 0 mm
22:00 10.4 °C 3.2 °C 1017.5 hPa East 12.9 km/h 19.3 km/h 61% 0 mm
22:05 10.4 °C 3.2 °C 1017.5 hPa ENE 6.4 km/h 16.1 km/h 61% 0 mm
22:10 10.4 °C 3.2 °C 1017.5 hPa ENE 9.7 km/h 20.9 km/h 61% 0 mm
22:15 10.3 °C 3.1 °C 1017.5 hPa ESE 14.5 km/h 27.4 km/h 61% 0 mm
22:20 10.3 °C 3.1 °C 1017.5 hPa ENE 6.4 km/h 20.9 km/h 61% 0 mm
22:25 10.2 °C 3.3 °C 1017.5 hPa East 8 km/h 19.3 km/h 62% 0 mm
22:30 10.2 °C 3.3 °C 1017.5 hPa ENE 4.8 km/h 17.7 km/h 62% 0 mm
22:35 10.1 °C 3.2 °C 1017.5 hPa East 8 km/h 17.7 km/h 62% 0 mm
22:40 10.1 °C 3.2 °C 1017.5 hPa East 8 km/h 19.3 km/h 62% 0 mm
22:45 10.1 °C 3.1 °C 1017.2 hPa East 9.7 km/h 20.9 km/h 62% 0 mm
22:50 9.9 °C 3.2 °C 1017.2 hPa ENE 8 km/h 20.9 km/h 63% 0 mm
22:55 9.9 °C 3.2 °C 1017.2 hPa ENE 8 km/h 17.7 km/h 63% 0 mm
23:00 9.9 °C 3.2 °C 1017.2 hPa ENE 8 km/h 17.7 km/h 63% 0 mm
23:05 9.8 °C 3.3 °C 1017.2 hPa NE 4.8 km/h 16.1 km/h 64% 0 mm
23:10 9.8 °C 3.1 °C 1017.2 hPa East 3.2 km/h 14.5 km/h 63% 0 mm
23:20 9.8 °C 3.1 °C 1017.2 hPa East 9.7 km/h 14.5 km/h 63% 0 mm
23:25 9.8 °C 3.3 °C 1017.2 hPa ENE 3.2 km/h 12.9 km/h 64% 0 mm
23:30 9.8 °C 3.3 °C 1017.2 hPa NE 6.4 km/h 14.5 km/h 64% 0 mm
23:35 9.8 °C 3.1 °C 1017.2 hPa NE 6.4 km/h 11.3 km/h 63% 0 mm
23:40 9.9 °C 3.4 °C 1017.2 hPa ENE 6.4 km/h 11.3 km/h 64% 0 mm
23:45 9.9 °C 3.2 °C 1017.2 hPa ENE 6.4 km/h 16.1 km/h 63% 0 mm
23:50 9.8 °C 3.3 °C 1016.8 hPa ENE 6.4 km/h 16.1 km/h 64% 0 mm
23:55 9.8 °C 3.3 °C 1016.8 hPa ENE 4.8 km/h 14.5 km/h 64% 0 mm
Buffalo, New York, USA
Compliments of Weather Underground - 2.5 mb